Time,TemperatureF,DewpointF,PressureIn,WindDirection,WindDirectionDegrees,WindSpeedMPH,WindSpeedGustMPH,Humidity,HourlyPrecipIn,Conditions,Clouds,dailyrainin,SoftwareType,DateUTC
2013-09-22 00:05:00,49.4,44.1,29.88,ESE,103,3.0,7.3,82,0.00,,CLR,0.00,VWS V14.01,2013-09-22 05:05:00,
2013-09-22 00:10:00,49.3,44.0,29.88,ESE,109,4.0,7.3,82,0.00,,CLR,0.00,VWS V14.01,2013-09-22 05:10:00,
2013-09-22 00:15:00,49.4,44.1,29.88,ESE,111,3.0,9.4,82,0.00,,CLR,0.00,VWS V14.01,2013-09-22 05:15:00,
2013-09-22 00:20:00,49.4,44.1,29.88,ESE,117,2.0,7.3,82,0.00,,CLR,0.00,VWS V14.01,2013-09-22 05:20:00,
2013-09-22 00:25:00,49.5,44.2,29.88,ESE,105,2.0,10.5,82,0.00,,CLR,0.00,VWS V14.01,2013-09-22 05:25:00,
2013-09-22 00:30:00,49.5,44.2,29.88,East,88,2.0,8.4,82,0.00,,CLR,0.00,VWS V14.01,2013-09-22 05:30:00,
2013-09-22 00:40:00,49.4,44.1,29.88,East,99,6.0,8.4,82,0.00,,CLR,0.00,VWS V14.01,2013-09-22 05:40:00,
2013-09-22 00:50:00,49.4,44.1,29.88,ESE,121,5.0,8.4,82,0.00,,CLR,0.00,VWS V14.01,2013-09-22 05:50:00,
2013-09-22 01:00:00,49.3,44.0,29.88,ESE,104,2.0,8.4,82,0.00,,CLR,0.00,VWS V14.01,2013-09-22 06:00:00,
2013-09-22 01:05:00,49.2,44.0,29.88,ESE,123,7.0,7.3,82,0.00,,CLR,0.00,VWS V14.01,2013-09-22 06:05:00,
2013-09-22 01:10:00,49.2,44.0,29.88,East,100,3.0,7.3,82,0.00,,CLR,0.00,VWS V14.01,2013-09-22 06:10:00,
2013-09-22 01:20:00,49.1,43.5,29.88,East,93,4.0,8.4,81,0.00,,CLR,0.00,VWS V14.01,2013-09-22 06:20:00,
2013-09-22 01:30:00,49.1,43.8,29.88,ESE,106,3.0,8.4,82,0.00,,CLR,0.00,VWS V14.01,2013-09-22 06:30:00,
2013-09-22 01:35:00,49.1,43.8,29.88,ESE,121,3.0,8.4,82,0.00,,CLR,0.00,VWS V14.01,2013-09-22 06:35:00,
2013-09-22 01:40:00,49.1,43.8,29.88,ESE,107,4.0,8.4,82,0.00,,SCT070,0.00,VWS V14.01,2013-09-22 06:40:00,
2013-09-22 01:50:00,49.1,43.8,29.88,ESE,114,2.0,9.4,82,0.00,,SCT070,0.00,VWS V14.01,2013-09-22 06:50:00,
2013-09-22 01:55:00,49.1,43.8,29.88,East,95,4.0,9.4,82,0.00,,SCT070,0.00,VWS V14.01,2013-09-22 06:55:00,
2013-09-22 02:00:00,49.2,44.0,29.89,ESE,112,2.0,8.4,82,0.00,,SCT070,0.00,VWS V14.01,2013-09-22 07:00:00,
2013-09-22 02:05:00,49.2,44.0,29.89,ESE,110,7.0,7.3,82,0.00,,SCT070,0.00,VWS V14.01,2013-09-22 07:05:00,
2013-09-22 02:10:00,49.1,43.8,29.88,East,88,5.0,8.4,82,0.00,,SCT070,0.00,VWS V14.01,2013-09-22 07:10:00,
2013-09-22 02:15:00,49.1,43.8,29.88,ESE,118,3.0,8.4,82,0.00,,SCT070,0.00,VWS V14.01,2013-09-22 07:15:00,
2013-09-22 02:25:00,49.2,44.0,29.88,East,84,3.0,9.4,82,0.00,,SCT070,0.00,VWS V14.01,2013-09-22 07:25:00,
2013-09-22 02:30:00,49.2,44.0,29.88,ESE,117,2.0,9.4,82,0.00,,SCT070,0.00,VWS V14.01,2013-09-22 07:30:00,
2013-09-22 02:35:00,49.2,44.0,29.88,ESE,103,3.0,8.4,82,0.00,,SCT070,0.00,VWS V14.01,2013-09-22 07:35:00,
2013-09-22 02:40:00,49.3,44.0,29.88,ESE,105,3.0,8.4,82,0.00,,SCT070,0.00,VWS V14.01,2013-09-22 07:40:00,
2013-09-22 02:45:00,49.2,44.0,29.88,ESE,112,7.0,9.4,82,0.00,,CLR,0.00,VWS V14.01,2013-09-22 07:45:00,
2013-09-22 02:50:00,49.2,44.0,29.88,ESE,113,6.0,9.4,82,0.00,,CLR,0.00,VWS V14.01,2013-09-22 07:50:00,
2013-09-22 02:55:00,49.2,44.0,29.88,ESE,113,6.0,8.4,82,0.00,,CLR,0.00,VWS V14.01,2013-09-22 07:55:00,
2013-09-22 03:00:00,49.1,43.8,29.87,ESE,107,4.0,8.4,82,0.00,,CLR,0.00,VWS V14.01,2013-09-22 08:00:00,
2013-09-22 03:05:00,49.1,43.8,29.87,ESE,115,4.0,9.4,82,0.00,,CLR,0.00,VWS V14.01,2013-09-22 08:05:00,
2013-09-22 03:15:00,49.1,43.8,29.87,ESE,105,7.0,9.4,82,0.00,,CLR,0.00,VWS V14.01,2013-09-22 08:15:00,
2013-09-22 03:25:00,49.1,43.8,29.87,East,98,4.0,10.5,82,0.00,,CLR,0.00,VWS V14.01,2013-09-22 08:25:00,
2013-09-22 03:30:00,49.1,43.8,29.87,SE,127,4.0,10.5,82,0.00,,CLR,0.00,VWS V14.01,2013-09-22 08:30:00,
2013-09-22 03:35:00,49.1,43.8,29.87,SE,128,4.0,9.4,82,0.00,,CLR,0.00,VWS V14.01,2013-09-22 08:35:00,
2013-09-22 03:40:00,49.0,43.8,29.87,ESE,109,3.0,8.4,82,0.00,,CLR,0.00,VWS V14.01,2013-09-22 08:40:00,
2013-09-22 03:45:00,48.9,43.7,29.87,East,96,6.0,8.4,82,0.00,,CLR,0.00,VWS V14.01,2013-09-22 08:45:00,
2013-09-22 03:50:00,48.9,43.7,29.87,ESE,119,3.0,8.4,82,0.00,,CLR,0.00,VWS V14.01,2013-09-22 08:50:00,
2013-09-22 03:55:00,48.8,43.6,29.87,ESE,105,3.0,9.4,82,0.00,,CLR,0.00,VWS V14.01,2013-09-22 08:55:00,
2013-09-22 04:00:00,48.8,43.6,29.87,SE,135,2.0,9.4,82,0.00,,CLR,0.00,VWS V14.01,2013-09-22 09:00:00,
2013-09-22 04:10:00,48.8,43.6,29.86,East,93,3.0,9.4,82,0.00,,CLR,0.00,VWS V14.01,2013-09-22 09:10:00,
2013-09-22 04:15:00,48.8,43.6,29.86,ESE,109,3.0,9.4,82,0.00,,CLR,0.00,VWS V14.01,2013-09-22 09:15:00,
2013-09-22 04:20:00,48.8,43.6,29.86,ESE,103,7.0,9.4,82,0.00,,CLR,0.00,VWS V14.01,2013-09-22 09:20:00,
2013-09-22 04:25:00,48.8,43.6,29.86,ESE,111,10.0,10.5,82,0.00,,CLR,0.00,VWS V14.01,2013-09-22 09:25:00,
2013-09-22 04:30:00,48.8,43.6,29.86,ESE,108,6.0,10.5,82,0.00,,CLR,0.00,VWS V14.01,2013-09-22 09:30:00,
2013-09-22 04:35:00,48.8,43.6,29.86,SSE,154,4.0,10.5,82,0.00,,CLR,0.00,VWS V14.01,2013-09-22 09:35:00,
2013-09-22 04:40:00,48.8,43.6,29.86,ESE,117,7.0,10.5,82,0.00,,CLR,0.00,VWS V14.01,2013-09-22 09:40:00,
2013-09-22 04:45:00,48.8,43.6,29.86,SE,130,5.0,11.5,82,0.00,,CLR,0.00,VWS V14.01,2013-09-22 09:45:00,
2013-09-22 04:50:00,48.9,43.7,29.86,SE,133,8.0,10.5,82,0.00,,CLR,0.00,VWS V14.01,2013-09-22 09:50:00,
2013-09-22 04:55:00,49.0,43.8,29.86,ESE,122,4.0,9.4,82,0.00,,CLR,0.00,VWS V14.01,2013-09-22 09:55:00,
2013-09-22 05:00:00,49.0,43.8,29.86,ESE,109,6.0,10.5,82,0.00,,CLR,0.00,VWS V14.01,2013-09-22 10:00:00,
2013-09-22 05:05:00,49.0,43.8,29.86,ESE,119,7.0,13.6,82,0.00,,CLR,0.00,VWS V14.01,2013-09-22 10:05:00,
2013-09-22 05:15:00,49.1,43.8,29.85,ESE,123,8.0,12.6,82,0.00,,CLR,0.00,VWS V14.01,2013-09-22 10:15:00,
2013-09-22 05:20:00,49.2,44.0,29.85,East,96,4.0,14.7,82,0.00,,CLR,0.00,VWS V14.01,2013-09-22 10:20:00,
2013-09-22 05:25:00,49.2,44.0,29.85,ESE,113,9.0,11.5,82,0.00,,CLR,0.00,VWS V14.01,2013-09-22 10:25:00,
2013-09-22 05:30:00,49.3,44.0,29.85,ESE,114,8.0,11.5,82,0.00,,CLR,0.00,VWS V14.01,2013-09-22 10:30:00,
2013-09-22 05:40:00,49.2,44.0,29.85,SE,138,5.0,13.6,82,0.00,,CLR,0.00,VWS V14.01,2013-09-22 10:40:00,
2013-09-22 05:45:00,49.2,44.0,29.85,ESE,107,7.0,12.6,82,0.00,,CLR,0.00,VWS V14.01,2013-09-22 10:45:00,
2013-09-22 05:50:00,49.2,44.0,29.85,ESE,105,8.0,12.6,82,0.00,,CLR,0.00,VWS V14.01,2013-09-22 10:50:00,
2013-09-22 05:55:00,49.1,43.8,29.85,ESE,107,7.0,11.5,82,0.00,,CLR,0.00,VWS V14.01,2013-09-22 10:55:00,
2013-09-22 06:00:00,49.1,43.8,29.85,East,91,4.0,12.6,82,0.00,,CLR,0.00,VWS V14.01,2013-09-22 11:00:00,
2013-09-22 06:05:00,49.1,43.8,29.84,ENE,74,5.0,11.5,82,0.00,,CLR,0.00,VWS V14.01,2013-09-22 11:05:00,
2013-09-22 06:15:00,49.1,43.8,29.84,ENE,69,4.0,12.6,82,0.00,,CLR,0.00,VWS V14.01,2013-09-22 11:15:00,
2013-09-22 06:20:00,49.1,43.8,29.84,East,101,2.0,11.5,82,0.00,,CLR,0.00,VWS V14.01,2013-09-22 11:20:00,
2013-09-22 06:25:00,49.1,43.8,29.84,ESE,105,6.0,13.6,82,0.00,,CLR,0.00,VWS V14.01,2013-09-22 11:25:00,
2013-09-22 06:30:00,49.2,44.0,29.84,SE,126,5.0,13.6,82,0.00,,CLR,0.00,VWS V14.01,2013-09-22 11:30:00,
2013-09-22 06:40:00,49.2,44.0,29.84,ENE,62,3.0,12.6,82,0.00,,CLR,0.00,VWS V14.01,2013-09-22 11:40:00,
2013-09-22 06:50:00,49.1,43.8,29.84,ESE,102,8.0,12.6,82,0.00,,CLR,0.00,VWS V14.01,2013-09-22 11:50:00,
2013-09-22 06:55:00,49.1,43.8,29.84,ESE,107,4.0,11.5,82,0.00,,CLR,0.00,VWS V14.01,2013-09-22 11:55:00,
2013-09-22 07:05:00,49.3,44.0,29.83,East,100,7.0,10.5,82,0.00,,CLR,0.00,VWS V14.01,2013-09-22 12:05:00,
2013-09-22 07:10:00,49.4,44.1,29.83,ESE,111,7.0,11.5,82,0.00,,CLR,0.00,VWS V14.01,2013-09-22 12:10:00,
2013-09-22 07:20:00,49.7,44.4,29.83,ESE,114,6.0,12.6,82,0.00,,CLR,0.00,VWS V14.01,2013-09-22 12:20:00,
2013-09-22 07:25:00,49.9,44.6,29.83,SE,138,5.0,11.5,82,0.00,,CLR,0.00,VWS V14.01,2013-09-22 12:25:00,
2013-09-22 07:35:00,50.2,44.9,29.83,ESE,107,6.0,11.5,82,0.00,,CLR,0.00,VWS V14.01,2013-09-22 12:35:00,
2013-09-22 07:40:00,50.4,45.1,29.83,SE,129,5.0,13.6,82,0.00,,CLR,0.00,VWS V14.01,2013-09-22 12:40:00,
2013-09-22 07:50:00,51.3,46.0,29.83,ESE,118,7.0,14.7,82,0.00,,CLR,0.00,VWS V14.01,2013-09-22 12:50:00,
2013-09-22 07:55:00,52.0,46.7,29.83,SE,127,7.0,15.7,82,0.00,,CLR,0.00,VWS V14.01,2013-09-22 12:55:00,
2013-09-22 08:00:00,52.6,47.3,29.83,SE,130,7.0,16.8,82,0.00,,CLR,0.00,VWS V14.01,2013-09-22 13:00:00,
2013-09-22 08:10:00,53.7,48.0,29.83,East,83,4.0,16.8,81,0.00,,CLR,0.00,VWS V14.01,2013-09-22 13:10:00,
2013-09-22 08:15:00,54.0,48.3,29.83,East,90,15.0,17.8,81,0.00,,CLR,0.00,VWS V14.01,2013-09-22 13:15:00,
2013-09-22 08:20:00,54.2,48.5,29.83,SE,138,8.0,17.8,81,0.00,,CLR,0.00,VWS V14.01,2013-09-22 13:20:00,
2013-09-22 08:30:00,54.4,48.7,29.83,ESE,110,2.0,17.8,81,0.00,,CLR,0.00,VWS V14.01,2013-09-22 13:30:00,
2013-09-22 08:35:00,54.5,48.8,29.83,ESE,111,9.0,16.8,81,0.00,,CLR,0.00,VWS V14.01,2013-09-22 13:35:00,
2013-09-22 08:45:00,54.8,49.1,29.83,SE,146,6.0,15.7,81,0.00,,CLR,0.00,VWS V14.01,2013-09-22 13:45:00,
2013-09-22 08:50:00,55.0,49.0,29.83,SE,127,8.0,21.0,80,0.00,,CLR,0.00,VWS V14.01,2013-09-22 13:50:00,
2013-09-22 08:55:00,55.2,49.2,29.83,SE,134,15.0,17.8,80,0.00,,CLR,0.00,VWS V14.01,2013-09-22 13:55:00,
2013-09-22 09:00:00,55.5,49.4,29.83,SE,135,5.0,16.8,80,0.00,,CLR,0.00,VWS V14.01,2013-09-22 14:00:00,
2013-09-22 09:10:00,56.2,49.8,29.83,SSE,166,9.0,18.9,79,0.00,,CLR,0.00,VWS V14.01,2013-09-22 14:10:00,
2013-09-22 09:15:00,56.5,50.1,29.83,SSE,148,5.0,18.9,79,0.00,,CLR,0.00,VWS V14.01,2013-09-22 14:15:00,
2013-09-22 09:20:00,56.9,50.5,29.83,ESE,121,14.0,15.7,79,0.00,,CLR,0.00,VWS V14.01,2013-09-22 14:20:00,
2013-09-22 09:25:00,57.2,50.4,29.83,SSE,147,10.0,16.8,78,0.00,,CLR,0.00,VWS V14.01,2013-09-22 14:25:00,
2013-09-22 09:35:00,58.0,50.8,29.83,ESE,104,13.0,17.8,77,0.00,,CLR,0.00,VWS V14.01,2013-09-22 14:35:00,
2013-09-22 09:45:00,59.0,51.8,29.82,SE,146,13.0,17.8,77,0.00,,CLR,0.00,VWS V14.01,2013-09-22 14:45:00,
2013-09-22 09:50:00,59.6,52.0,29.82,SE,130,14.0,15.7,76,0.00,,CLR,0.00,VWS V14.01,2013-09-22 14:50:00,
2013-09-22 09:55:00,60.1,52.2,29.82,ESE,115,10.0,18.9,75,0.00,,CLR,0.00,VWS V14.01,2013-09-22 14:55:00,
2013-09-22 10:00:00,60.5,52.5,29.82,SE,128,15.0,18.9,75,0.00,,CLR,0.00,VWS V14.01,2013-09-22 15:00:00,
2013-09-22 10:05:00,61.0,53.0,29.82,SE,132,9.0,16.8,75,0.00,,CLR,0.00,VWS V14.01,2013-09-22 15:05:00,
2013-09-22 10:10:00,61.6,52.9,29.82,ESE,116,8.0,17.8,73,0.00,,CLR,0.00,VWS V14.01,2013-09-22 15:10:00,
2013-09-22 10:15:00,62.1,53.3,29.82,SSE,148,6.0,17.8,73,0.00,,CLR,0.00,VWS V14.01,2013-09-22 15:15:00,
2013-09-22 10:20:00,62.8,53.7,29.83,SSE,149,6.0,17.8,72,0.00,,CLR,0.00,VWS V14.01,2013-09-22 15:20:00,
2013-09-22 10:30:00,63.5,53.5,29.82,SE,145,15.0,16.8,70,0.00,,CLR,0.00,VWS V14.01,2013-09-22 15:30:00,
2013-09-22 10:40:00,64.2,53.8,29.82,SE,131,9.0,18.9,69,0.00,,CLR,0.00,VWS V14.01,2013-09-22 15:40:00,
2013-09-22 10:50:00,64.9,54.1,29.82,SSE,165,7.0,16.8,68,0.00,,CLR,0.00,VWS V14.01,2013-09-22 15:50:00,
2013-09-22 11:00:00,65.5,54.3,29.81,SSE,165,11.0,17.8,67,0.00,,CLR,0.00,VWS V14.01,2013-09-22 16:00:00,
2013-09-22 11:05:00,65.8,54.5,29.81,SE,130,9.0,18.9,67,0.00,,CLR,0.00,VWS V14.01,2013-09-22 16:05:00,
2013-09-22 11:10:00,66.3,55.0,29.81,SE,130,4.0,16.8,67,0.00,,CLR,0.00,VWS V14.01,2013-09-22 16:10:00,
2013-09-22 11:15:00,66.5,54.4,29.81,SE,142,8.0,19.9,65,0.00,,CLR,0.00,VWS V14.01,2013-09-22 16:15:00,
2013-09-22 11:20:00,66.8,54.7,29.81,SE,146,5.0,17.8,65,0.00,,CLR,0.00,VWS V14.01,2013-09-22 16:20:00,
2013-09-22 11:25:00,67.0,54.4,29.81,SE,129,13.0,18.9,64,0.00,,CLR,0.00,VWS V14.01,2013-09-22 16:25:00,
2013-09-22 11:35:00,68.0,55.4,29.80,SE,142,3.0,17.8,64,0.00,,CLR,0.00,VWS V14.01,2013-09-22 16:35:00,
2013-09-22 11:40:00,68.2,55.6,29.80,SE,146,12.0,18.9,64,0.00,,CLR,0.00,VWS V14.01,2013-09-22 16:40:00,
2013-09-22 11:45:00,68.5,55.4,29.80,ESE,112,7.0,17.8,63,0.00,,CLR,0.00,VWS V14.01,2013-09-22 16:45:00,
2013-09-22 11:50:00,69.0,55.5,29.79,SE,140,11.0,15.7,62,0.00,,CLR,0.00,VWS V14.01,2013-09-22 16:50:00,
2013-09-22 11:55:00,69.4,55.8,29.79,SSE,160,9.0,17.8,62,0.00,,CLR,0.00,VWS V14.01,2013-09-22 16:55:00,
2013-09-22 12:05:00,70.0,56.0,29.79,SE,132,10.0,19.9,61,0.00,,CLR,0.00,VWS V14.01,2013-09-22 17:05:00,
2013-09-22 12:15:00,70.6,56.5,29.78,SE,138,9.0,16.8,61,0.00,,CLR,0.00,VWS V14.01,2013-09-22 17:15:00,
2013-09-22 12:20:00,70.9,56.8,29.78,ESE,111,9.0,17.8,61,0.00,,CLR,0.00,VWS V14.01,2013-09-22 17:20:00,
2013-09-22 12:30:00,71.8,56.7,29.78,South,181,7.0,16.8,59,0.00,,CLR,0.00,VWS V14.01,2013-09-22 17:30:00,
2013-09-22 12:35:00,72.0,56.9,29.78,SE,137,12.0,17.8,59,0.00,,CLR,0.00,VWS V14.01,2013-09-22 17:35:00,
2013-09-22 12:40:00,72.3,56.7,29.78,SE,146,8.0,21.0,58,0.00,,CLR,0.00,VWS V14.01,2013-09-22 17:40:00,
2013-09-22 12:50:00,73.0,56.9,29.77,South,172,10.0,14.7,57,0.00,,CLR,0.00,VWS V14.01,2013-09-22 17:50:00,
2013-09-22 12:55:00,73.4,57.3,29.77,SE,130,8.0,17.8,57,0.00,,CLR,0.00,VWS V14.01,2013-09-22 17:55:00,
2013-09-22 13:05:00,73.8,57.1,29.77,SSE,155,8.0,16.8,56,0.00,,CLR,0.00,VWS V14.01,2013-09-22 18:05:00,
2013-09-22 13:10:00,74.1,57.4,29.77,South,175,10.0,16.8,56,0.00,,CLR,0.00,VWS V14.01,2013-09-22 18:10:00,
2013-09-22 13:15:00,74.3,57.6,29.77,SE,139,5.0,16.8,56,0.00,,CLR,0.00,VWS V14.01,2013-09-22 18:15:00,
2013-09-22 13:20:00,74.6,58.4,29.77,SE,125,9.0,18.9,57,0.00,,CLR,0.00,VWS V14.01,2013-09-22 18:20:00,
2013-09-22 13:30:00,74.9,58.2,29.76,SE,132,5.0,19.9,56,0.00,,CLR,0.00,VWS V14.01,2013-09-22 18:30:00,
2013-09-22 13:35:00,75.3,57.5,29.76,SE,144,10.0,18.9,54,0.00,,CLR,0.00,VWS V14.01,2013-09-22 18:35:00,
2013-09-22 13:45:00,75.7,57.9,29.75,ESE,118,11.0,17.8,54,0.00,,CLR,0.00,VWS V14.01,2013-09-22 18:45:00,
2013-09-22 13:55:00,76.4,58.0,29.75,SE,131,9.0,18.9,53,0.00,,CLR,0.00,VWS V14.01,2013-09-22 18:55:00,
2013-09-22 14:00:00,76.7,57.8,29.75,SSE,150,12.0,19.9,52,0.00,,CLR,0.00,VWS V14.01,2013-09-22 19:00:00,
2013-09-22 14:05:00,77.1,58.1,29.74,SSE,154,11.0,19.9,52,0.00,,CLR,0.00,VWS V14.01,2013-09-22 19:05:00,
2013-09-22 14:10:00,77.6,58.1,29.74,SE,142,10.0,13.6,51,0.00,,CLR,0.00,VWS V14.01,2013-09-22 19:10:00,
2013-09-22 14:20:00,78.0,57.9,29.74,SSE,162,15.0,19.9,50,0.00,,CLR,0.00,VWS V14.01,2013-09-22 19:20:00,
2013-09-22 14:30:00,78.4,57.7,29.74,SE,130,13.0,18.9,49,0.00,,CLR,0.00,VWS V14.01,2013-09-22 19:30:00,
2013-09-22 14:35:00,78.8,58.0,29.73,SSE,167,17.0,17.8,49,0.00,,CLR,0.00,VWS V14.01,2013-09-22 19:35:00,
2013-09-22 14:40:00,79.1,57.8,29.73,SSE,159,9.0,17.8,48,0.00,,CLR,0.00,VWS V14.01,2013-09-22 19:40:00,
2013-09-22 14:45:00,79.3,57.9,29.73,SE,137,7.0,19.9,48,0.00,,CLR,0.00,VWS V14.01,2013-09-22 19:45:00,
2013-09-22 14:55:00,79.6,58.2,29.73,SE,144,11.0,18.9,48,0.00,,CLR,0.00,VWS V14.01,2013-09-22 19:55:00,
2013-09-22 15:00:00,79.8,58.4,29.73,SSE,162,10.0,15.7,48,0.00,,CLR,0.00,VWS V14.01,2013-09-22 20:00:00,
2013-09-22 15:10:00,80.2,58.2,29.73,SE,129,8.0,16.8,47,0.00,,CLR,0.00,VWS V14.01,2013-09-22 20:10:00,
2013-09-22 15:15:00,80.4,57.8,29.72,SSE,167,12.0,19.9,46,0.00,,CLR,0.00,VWS V14.01,2013-09-22 20:15:00,
2013-09-22 15:20:00,80.7,58.0,29.72,SSE,161,9.0,17.8,46,0.00,,CLR,0.00,VWS V14.01,2013-09-22 20:20:00,
2013-09-22 15:25:00,80.9,57.0,29.72,SE,135,13.0,23.1,44,0.00,,CLR,0.00,VWS V14.01,2013-09-22 20:25:00,
2013-09-22 15:35:00,81.1,57.2,29.71,SSW,193,7.0,22.0,44,0.00,,CLR,0.00,VWS V14.01,2013-09-22 20:35:00,
2013-09-22 15:45:00,81.5,57.5,29.71,SSE,167,12.0,16.8,44,0.00,,CLR,0.00,VWS V14.01,2013-09-22 20:45:00,
2013-09-22 15:55:00,81.7,57.0,29.70,SSE,160,14.0,17.8,43,0.00,,CLR,0.00,VWS V14.01,2013-09-22 20:55:00,
2013-09-22 16:00:00,81.6,56.3,29.71,South,176,4.0,18.9,42,0.00,,CLR,0.00,VWS V14.01,2013-09-22 21:00:00,
2013-09-22 16:05:00,81.8,57.8,29.70,SE,144,6.0,16.8,44,0.00,,CLR,0.00,VWS V14.01,2013-09-22 21:05:00,
2013-09-22 16:15:00,81.8,56.5,29.70,SW,214,16.0,18.9,42,0.00,,CLR,0.00,VWS V14.01,2013-09-22 21:15:00,
2013-09-22 16:20:00,81.7,56.4,29.70,SSE,155,15.0,21.0,42,0.00,,CLR,0.00,VWS V14.01,2013-09-22 21:20:00,
2013-09-22 16:25:00,81.5,56.2,29.70,SSE,164,14.0,23.1,42,0.00,,CLR,0.00,VWS V14.01,2013-09-22 21:25:00,
2013-09-22 16:35:00,81.3,56.7,29.70,SSE,152,8.0,16.8,43,0.00,,CLR,0.00,VWS V14.01,2013-09-22 21:35:00,
2013-09-22 16:40:00,81.2,56.6,29.70,SSE,167,8.0,18.9,43,0.00,,CLR,0.00,VWS V14.01,2013-09-22 21:40:00,
2013-09-22 16:50:00,81.2,56.6,29.69,SE,131,11.0,16.8,43,0.00,,CLR,0.00,VWS V14.01,2013-09-22 21:50:00,
2013-09-22 17:00:00,81.1,56.5,29.69,SSE,152,12.0,17.8,43,0.00,,CLR,0.00,VWS V14.01,2013-09-22 22:00:00,
2013-09-22 17:10:00,81.0,55.8,29.69,South,184,12.0,21.0,42,0.00,,CLR,0.00,VWS V14.01,2013-09-22 22:10:00,
2013-09-22 17:15:00,80.8,55.6,29.69,South,170,8.0,21.0,42,0.00,,CLR,0.00,VWS V14.01,2013-09-22 22:15:00,
2013-09-22 17:20:00,80.7,56.2,29.69,SE,145,11.0,19.9,43,0.00,,CLR,0.00,VWS V14.01,2013-09-22 22:20:00,
2013-09-22 17:25:00,80.6,56.1,29.69,SE,144,9.0,16.8,43,0.00,,CLR,0.00,VWS V14.01,2013-09-22 22:25:00,
2013-09-22 17:30:00,80.5,56.0,29.69,SSE,153,13.0,18.9,43,0.00,,CLR,0.00,VWS V14.01,2013-09-22 22:30:00,
2013-09-22 17:40:00,80.5,56.0,29.69,SSE,166,9.0,15.7,43,0.00,,CLR,0.00,VWS V14.01,2013-09-22 22:40:00,
2013-09-22 17:45:00,80.3,55.8,29.70,South,175,9.0,16.8,43,0.00,,CLR,0.00,VWS V14.01,2013-09-22 22:45:00,
2013-09-22 17:50:00,80.1,56.2,29.70,SE,142,14.0,16.8,44,0.00,,CLR,0.00,VWS V14.01,2013-09-22 22:50:00,
2013-09-22 17:55:00,79.9,55.4,29.70,South,174,3.0,17.8,43,0.00,,CLR,0.00,VWS V14.01,2013-09-22 22:55:00,
2013-09-22 18:00:00,79.8,55.3,29.70,South,171,6.0,14.7,43,0.00,,CLR,0.00,VWS V14.01,2013-09-22 23:00:00,
2013-09-22 18:05:00,79.6,55.2,29.70,SE,142,6.0,16.8,43,0.00,,CLR,0.00,VWS V14.01,2013-09-22 23:05:00,
2013-09-22 18:10:00,79.2,55.4,29.70,South,174,8.0,12.6,44,0.00,,CLR,0.00,VWS V14.01,2013-09-22 23:10:00,
2013-09-22 18:15:00,78.7,55.6,29.70,SSE,159,4.0,13.6,45,0.00,,CLR,0.00,VWS V14.01,2013-09-22 23:15:00,
2013-09-22 18:25:00,78.0,55.6,29.70,South,182,5.0,12.6,46,0.00,,CLR,0.00,VWS V14.01,2013-09-22 23:25:00,
2013-09-22 18:30:00,77.8,55.4,29.70,SSE,147,6.0,12.6,46,0.00,,CLR,0.00,VWS V14.01,2013-09-22 23:30:00,
2013-09-22 18:35:00,77.6,55.2,29.70,SE,145,5.0,11.5,46,0.00,,CLR,0.00,VWS V14.01,2013-09-22 23:35:00,
2013-09-22 18:40:00,77.3,55.5,29.70,South,169,12.0,12.6,47,0.00,,CLR,0.00,VWS V14.01,2013-09-22 23:40:00,
2013-09-22 18:45:00,76.7,55.5,29.70,SE,145,5.0,12.6,48,0.00,,CLR,0.00,VWS V14.01,2013-09-22 23:45:00,
2013-09-22 18:55:00,75.9,55.4,29.70,SE,137,4.0,10.5,49,0.00,,CLR,0.00,VWS V14.01,2013-09-22 23:55:00,
2013-09-22 19:00:00,75.6,55.1,29.70,SSE,162,6.0,10.5,49,0.00,,CLR,0.00,VWS V14.01,2013-09-23 00:00:00,
2013-09-22 19:05:00,75.1,55.2,29.70,SSE,159,5.0,9.4,50,0.00,,CLR,0.00,VWS V14.01,2013-09-23 00:05:00,
2013-09-22 19:10:00,74.7,55.4,29.71,SE,139,3.0,9.4,51,0.00,,CLR,0.00,VWS V14.01,2013-09-23 00:10:00,
2013-09-22 19:15:00,74.3,55.0,29.71,SE,128,3.0,8.4,51,0.00,,CLR,0.00,VWS V14.01,2013-09-23 00:15:00,
2013-09-22 19:25:00,73.2,55.1,29.71,SSE,163,2.0,8.4,53,0.00,,CLR,0.00,VWS V14.01,2013-09-23 00:25:00,
2013-09-22 19:30:00,72.6,55.5,29.71,SSE,150,1.0,6.3,55,0.00,,CLR,0.00,VWS V14.01,2013-09-23 00:30:00,
2013-09-22 19:35:00,71.7,55.7,29.71,ESE,115,3.0,9.4,57,0.00,,CLR,0.00,VWS V14.01,2013-09-23 00:35:00,
2013-09-22 19:40:00,70.7,55.2,29.71,SE,143,1.0,7.3,58,0.00,,CLR,0.00,VWS V14.01,2013-09-23 00:40:00,
2013-09-22 19:45:00,69.8,55.3,29.71,SE,140,3.0,4.2,60,0.00,,CLR,0.00,VWS V14.01,2013-09-23 00:45:00,
2013-09-22 19:50:00,69.0,55.5,29.71,SE,140,2.0,3.1,62,0.00,,CLR,0.00,VWS V14.01,2013-09-23 00:50:00,
2013-09-22 19:55:00,68.4,56.2,29.71,ESE,114,3.0,4.2,65,0.00,,CLR,0.00,VWS V14.01,2013-09-23 00:55:00,
2013-09-22 20:00:00,67.8,56.5,29.72,SE,130,3.0,4.2,67,0.00,,CLR,0.00,VWS V14.01,2013-09-23 01:00:00,
2013-09-22 20:05:00,67.4,56.5,29.72,SE,136,2.0,5.2,68,0.00,,CLR,0.00,VWS V14.01,2013-09-23 01:05:00,
2013-09-22 20:10:00,67.1,56.6,29.72,SE,135,4.0,5.2,69,0.00,,CLR,0.00,VWS V14.01,2013-09-23 01:10:00,
2013-09-22 20:15:00,66.8,56.7,29.72,ESE,117,2.0,7.3,70,0.00,,CLR,0.00,VWS V14.01,2013-09-23 01:15:00,
2013-09-22 20:20:00,66.7,57.0,29.72,SE,132,5.0,8.4,71,0.00,,CLR,0.00,VWS V14.01,2013-09-23 01:20:00,
2013-09-22 20:30:00,66.3,56.6,29.72,SE,130,3.0,8.4,71,0.00,,CLR,0.00,VWS V14.01,2013-09-23 01:30:00,
2013-09-22 20:35:00,66.3,56.6,29.72,SE,140,3.0,8.4,71,0.00,,CLR,0.00,VWS V14.01,2013-09-23 01:35:00,
2013-09-22 20:40:00,66.2,56.9,29.72,ESE,123,2.0,7.3,72,0.00,,CLR,0.00,VWS V14.01,2013-09-23 01:40:00,
2013-09-22 20:45:00,66.1,56.8,29.72,ESE,107,4.0,7.3,72,0.00,,CLR,0.00,VWS V14.01,2013-09-23 01:45:00,
2013-09-22 20:50:00,65.9,57.0,29.72,ESE,113,4.0,8.4,73,0.00,,CLR,0.00,VWS V14.01,2013-09-23 01:50:00,
2013-09-22 20:55:00,65.7,56.8,29.73,ESE,123,8.0,10.5,73,0.00,,CLR,0.00,VWS V14.01,2013-09-23 01:55:00,
2013-09-22 21:00:00,65.5,56.6,29.73,SE,124,4.0,8.4,73,0.00,,CLR,0.00,VWS V14.01,2013-09-23 02:00:00,
2013-09-22 21:05:00,65.2,56.7,29.73,SE,132,4.0,8.4,74,0.00,,CLR,0.00,VWS V14.01,2013-09-23 02:05:00,
2013-09-22 21:10:00,64.9,56.8,29.73,SSE,153,4.0,9.4,75,0.00,,CLR,0.00,VWS V14.01,2013-09-23 02:10:00,
2013-09-22 21:15:00,64.6,56.5,29.73,ESE,121,4.0,11.5,75,0.00,,CLR,0.00,VWS V14.01,2013-09-23 02:15:00,
2013-09-22 21:20:00,64.4,56.3,29.73,ESE,113,6.0,9.4,75,0.00,,CLR,0.00,VWS V14.01,2013-09-23 02:20:00,
2013-09-22 21:30:00,63.8,56.5,29.73,ESE,115,3.0,9.4,77,0.00,,CLR,0.00,VWS V14.01,2013-09-23 02:30:00,
2013-09-22 21:35:00,63.5,56.2,29.73,ESE,105,2.0,9.4,77,0.00,,CLR,0.00,VWS V14.01,2013-09-23 02:35:00,
2013-09-22 21:40:00,63.3,56.0,29.73,SE,132,9.0,9.4,77,0.00,,CLR,0.00,VWS V14.01,2013-09-23 02:40:00,
2013-09-22 21:45:00,63.2,56.2,29.73,ESE,115,3.0,9.4,78,0.00,,CLR,0.00,VWS V14.01,2013-09-23 02:45:00,
2013-09-22 22:00:00,63.0,56.0,29.74,ESE,119,8.0,10.5,78,0.00,,CLR,0.00,VWS V14.01,2013-09-23 03:00:00,
2013-09-22 22:10:00,63.1,56.1,29.74,East,101,7.0,10.5,78,0.00,,CLR,0.00,VWS V14.01,2013-09-23 03:10:00,
2013-09-22 22:15:00,63.2,56.2,29.73,SSE,155,10.0,12.6,78,0.00,,CLR,0.00,VWS V14.01,2013-09-23 03:15:00,
2013-09-22 22:20:00,63.4,56.4,29.74,ESE,110,3.0,11.5,78,0.00,,CLR,0.00,VWS V14.01,2013-09-23 03:20:00,
2013-09-22 22:25:00,63.4,56.4,29.74,SE,140,7.0,11.5,78,0.00,,CLR,0.00,VWS V14.01,2013-09-23 03:25:00,
2013-09-22 22:30:00,63.3,56.3,29.74,SE,128,5.0,9.4,78,0.00,,CLR,0.00,VWS V14.01,2013-09-23 03:30:00,
2013-09-22 22:35:00,63.1,56.1,29.74,SE,146,3.0,10.5,78,0.00,,CLR,0.00,VWS V14.01,2013-09-23 03:35:00,
2013-09-22 22:45:00,62.9,55.9,29.74,SSE,147,5.0,11.5,78,0.00,,CLR,0.00,VWS V14.01,2013-09-23 03:45:00,
2013-09-22 22:50:00,62.8,56.2,29.74,SE,144,5.0,12.6,79,0.00,,CLR,0.00,VWS V14.01,2013-09-23 03:50:00,
2013-09-22 22:55:00,62.9,56.3,29.74,SE,127,10.0,10.5,79,0.00,,CLR,0.00,VWS V14.01,2013-09-23 03:55:00,
2013-09-22 23:00:00,62.9,56.3,29.74,SSE,161,8.0,12.6,79,0.00,,CLR,0.00,VWS V14.01,2013-09-23 04:00:00,
2013-09-22 23:05:00,63.0,56.0,29.74,SSE,148,8.0,12.6,78,0.00,,CLR,0.00,VWS V14.01,2013-09-23 04:05:00,
2013-09-22 23:10:00,63.2,56.2,29.74,SE,142,3.0,13.6,78,0.00,,CLR,0.00,VWS V14.01,2013-09-23 04:10:00,
2013-09-22 23:15:00,63.4,56.4,29.74,SE,134,11.0,12.6,78,0.00,,CLR,0.00,VWS V14.01,2013-09-23 04:15:00,
2013-09-22 23:20:00,63.6,56.6,29.74,SE,133,4.0,14.7,78,0.00,,CLR,0.00,VWS V14.01,2013-09-23 04:20:00,
2013-09-22 23:25:00,63.7,56.4,29.74,SE,131,5.0,13.6,77,0.00,,CLR,0.00,VWS V14.01,2013-09-23 04:25:00,
2013-09-22 23:35:00,63.8,56.5,29.74,SSE,148,4.0,13.6,77,0.00,,CLR,0.00,VWS V14.01,2013-09-23 04:35:00,
2013-09-22 23:40:00,63.8,56.5,29.74,South,172,10.0,13.6,77,0.00,,CLR,0.00,VWS V14.01,2013-09-23 04:40:00,
2013-09-22 23:50:00,63.5,56.5,29.75,SSE,151,9.0,17.8,78,0.00,,CLR,0.00,VWS V14.01,2013-09-23 04:50:00,